Regional Weather Roundup
Issued by NWS Cleveland, OH

Home | Current Version | Previous Version | Graphics & Text | Print | Product List | Glossary On
Versions: 1 2 3 4 5 6 7 8 9 10 11 12 13 14 15 16 17 18 19 20 21 22 23 24 25 26 27 28 29 30 31 32 33 34 35 36 37 38 39 40 41 42 43 44 45 46 47 48 49 50
000
ASUS41 KCLE 151712
RWRCLE
OHIO REGIONAL WEATHER ROUNDUP
NATIONAL WEATHER SERVICE WILMINGTON, OH
1200 PM EST FRI DEC 15 2017

NOTE: "FAIR" INDICATES FEW OR NO CLOUDS BELOW 12,000 FEET WITH NO
SIGNIFICANT WEATHER AND/OR OBSTRUCTIONS TO VISIBILITY.

OHZ001>008-015>018-024>027-034-035-043-044-151800-
   NORTHWEST OHIO

CITY           SKY/WX    TMP DP  RH WIND       PRES   REMARKS
DEFIANCE       CLOUDY    25  18  74 SW12G21   29.89F WCI  14
FINDLAY        CLOUDY    27  16  63 SW15G25   29.89F WCI  15
TOLEDO EXPRESS CLOUDY    26  19  74 SW15G24   29.87F WCI  14
TOLEDO EXEC    CLOUDY    26  18  71 SW18      29.88F WCI  13
LIMA           CLOUDY    27  19  72 SW21G29   29.90F WCI  13
$$

OHZ009>014-019>023-028>033-038-089-151800-
   NORTHEAST OHIO

CITY           SKY/WX    TMP DP  RH WIND       PRES   REMARKS
CLE-HOPKINS    CLOUDY    24  12  60 S12       29.91F WCI  13
CLE-LAKEFRONT  CLOUDY    24  12  60 S13       29.89F WCI  12
CUY CO. ARPT   CLOUDY    25  12  58 S13       29.89F WCI  13
LORAIN-ELYRIA  CLOUDY    23  10  57 SW14      29.89F WCI  11
ASHTABULA      CLOUDY    19  10  68 S9        29.88F WCI   8
AKRON-CANTON   CLOUDY    21  11  65 SW10      29.90F WCI  10
WOOSTER        CLOUDY    21  12  68 SW10      29.90F WCI  10
MANSFIELD      CLOUDY    24  14  65 S15G25    29.88F WCI  11
YOUNGSTOWN     CLOUDY    20  11  68 SW8       29.89F WCI  10
$$

OHZ042-051>053-060>062-070>072-077>081-151800-
  SOUTHWEST OHIO

CITY           SKY/WX    TMP DP  RH WIND       PRES   REMARKS
CINC-COVINGTON FAIR      32  21  64 SW12G22   30.01F WCI  23
CINC-LUNKEN    FAIR      32  19  58 SW12      30.05F WCI  23
HAMILTON       PTSUNNY   32  20  61 SW13      30.03F WCI  22
DAYTON         CLOUDY    28  20  71 SW22      29.96F WCI  14
WRIGHT-PAT AFB PTSUNNY   30  19  64 SW20      29.96F WCI  17
DAYTON GENERAL PTSUNNY   29  18  63 SW15      29.98F WCI  18
WILMINGTON     CLOUDY    27  18  69 W16       29.98F WCI  15
$$

OHZ036-037-039>041-045>050-054>059-063>069-073>076-082>088-151800-
  CENTRAL AND SOUTHEAST OHIO

CITY           SKY/WX    TMP DP  RH WIND       PRES   REMARKS
COLUMBUS       CLOUDY    28  17  63 SW14      29.97F WCI  17
OSU AIRPORT    CLOUDY    27  17  66 SW16      29.95F WCI  15
BOLTON FIELD   CLOUDY    27  18  69 SW10      29.98F WCI  17
RICKENBACK AFB CLOUDY    28  17  63 SW13      29.98F WCI  17
NEWARK         CLOUDY    27  17  66 SW12      29.96F WCI  17
MARION         NOT AVBL
LANCASTER      CLOUDY    27  18  69 SW12      29.99F WCI  17
ZANESVILLE     FAIR      27  17  66 W10       29.96F WCI  17
NEW PHILLY     PTSUNNY   24  12  60 SW9       29.95F WCI  14
$$




USA.gov is the U.S. government's official web portal to all federal, state and local government web resources and services.